ACA999 LIMJ-LICC

Flight info

Callsign ACA999
Flight time 1h 26m
Altitude 35000
Route UNITA6E UNITA DCT ELB DCT PODOX DCT LURON DCT BEKIV DCT ENEPA DCT LIBRO LIBRO1Q
Aircraft B38M/M-SDE1FGHILORVWXY/HB1

Departure

Time 2026-04-26 19:02
Airport Genoa Cristoforo Colombo Airport (LIMJ)

Arrival

Time 2026-04-26 20:28
Airport Catania-Fontanarossa Airport (LICC)
Time Latitude Longitude Altitude Speed Heading
2026-04-26 18:43 44.41402 8.85104 20 ft 0 kts 15°
2026-04-26 18:56 44.41396 8.85102 20 ft 2 kts 15°
2026-04-26 18:56 44.41380 8.85096 21 ft 2 kts 15°
2026-04-26 18:56 44.41365 8.85090 22 ft 2 kts 16°
2026-04-26 18:57 44.41349 8.85083 24 ft 2 kts 21°
2026-04-26 18:57 44.41339 8.85076 4 ft 2 kts 38°
2026-04-26 18:57 44.41334 8.85059 -4 ft 0 kts 102°
2026-04-26 18:57 44.41334 8.85058 4 ft 0 kts 102°
2026-04-26 19:00 44.41326 8.85102 23 ft 9 kts 105°
2026-04-26 19:00 44.41307 8.85197 20 ft 10 kts 105°
2026-04-26 19:00 44.41265 8.85276 20 ft 10 kts 147°
2026-04-26 19:00 44.41200 8.85274 20 ft 10 kts 194°
2026-04-26 19:01 44.41122 8.85245 20 ft 14 kts 194°
2026-04-26 19:01 44.41048 8.85190 15 ft 12 kts 233°
2026-04-26 19:01 44.41022 8.85066 16 ft 19 kts 281°
2026-04-26 19:01 44.41116 8.84586 24 ft 83 kts 285°
2026-04-26 19:02 44.41321 8.83545 24 ft 137 kts 285°
2026-04-26 19:02 44.41607 8.82096 174 ft 165 kts 285°
2026-04-26 19:02 44.41914 8.80513 692 ft 172 kts 285°
2026-04-26 19:02 44.42089 8.79424 1067 ft 174 kts 271°
2026-04-26 19:03 44.41421 8.77494 1821 ft 175 kts 218°
2026-04-26 19:03 44.40260 8.76777 2246 ft 196 kts 184°
2026-04-26 19:03 44.38887 8.77252 2703 ft 218 kts 144°
2026-04-26 19:03 44.37740 8.78781 3253 ft 238 kts 136°
2026-04-26 19:04 44.36476 8.80416 3861 ft 256 kts 138°
2026-04-26 19:04 44.34948 8.81671 4783 ft 259 kts 163°
2026-04-26 19:04 44.33130 8.81899 5564 ft 269 kts 182°
2026-04-26 19:04 44.31246 8.81770 6428 ft 274 kts 181°
2026-04-26 19:05 44.27369 8.81489 8072 ft 283 kts 182°
2026-04-26 19:05 44.25391 8.81333 8906 ft 287 kts 182°
2026-04-26 19:05 44.23385 8.81171 9754 ft 291 kts 183°
2026-04-26 19:06 44.21349 8.81005 10492 ft 298 kts 183°
2026-04-26 19:06 44.19208 8.80830 10894 ft 318 kts 183°
2026-04-26 19:06 44.16946 8.80645 11314 ft 334 kts 183°
2026-04-26 19:06 44.14590 8.80710 11926 ft 342 kts 167°
2026-04-26 19:07 44.12392 8.81928 12789 ft 344 kts 147°
2026-04-26 19:07 44.10478 8.83973 13520 ft 350 kts 140°
2026-04-26 19:07 44.08582 8.86127 14318 ft 354 kts 140°
2026-04-26 19:07 44.06669 8.88324 15070 ft 358 kts 140°
2026-04-26 19:08 44.04746 8.90547 15851 ft 362 kts 140°
2026-04-26 19:08 44.02796 8.92809 16591 ft 367 kts 140°
2026-04-26 19:08 44.00829 8.95092 17326 ft 371 kts 140°
2026-04-26 19:08 43.98833 8.97410 18045 ft 376 kts 141°
2026-04-26 19:09 43.96814 8.99752 18707 ft 380 kts 141°
2026-04-26 19:09 43.94800 9.02088 19322 ft 384 kts 141°
2026-04-26 19:09 43.92741 9.04475 19957 ft 387 kts 141°
2026-04-26 19:09 43.90667 9.06879 20573 ft 390 kts 141°
2026-04-26 19:10 43.88571 9.09305 21180 ft 394 kts 141°
2026-04-26 19:10 43.86455 9.11752 21755 ft 398 kts 141°
2026-04-26 19:10 43.84319 9.14219 22342 ft 402 kts 142°
2026-04-26 19:10 43.82160 9.16712 22919 ft 405 kts 142°
2026-04-26 19:11 43.79986 9.19219 23501 ft 409 kts 142°
2026-04-26 19:11 43.77793 9.21746 24014 ft 412 kts 142°
2026-04-26 19:11 43.75581 9.24292 24482 ft 415 kts 142°
2026-04-26 19:11 43.73349 9.26858 24950 ft 418 kts 142°
2026-04-26 19:12 43.71102 9.29438 25415 ft 421 kts 142°
2026-04-26 19:12 43.68839 9.32035 25856 ft 425 kts 142°
2026-04-26 19:12 43.66559 9.34649 26304 ft 428 kts 142°
2026-04-26 19:12 43.64264 9.37276 26741 ft 431 kts 142°
2026-04-26 19:13 43.61946 9.39927 27175 ft 433 kts 142°
2026-04-26 19:13 43.59617 9.42589 27607 ft 436 kts 142°
2026-04-26 19:13 43.57273 9.45264 28025 ft 439 kts 142°
2026-04-26 19:13 43.54907 9.47962 28424 ft 443 kts 141°
2026-04-26 19:14 43.52524 9.50677 28797 ft 446 kts 141°
2026-04-26 19:14 43.50122 9.53409 29215 ft 449 kts 141°
2026-04-26 19:14 43.47705 9.56157 29604 ft 452 kts 142°
2026-04-26 19:14 43.46095 9.57984 29863 ft 454 kts 141°
2026-04-26 19:15 43.42825 9.61695 30345 ft 457 kts 142°
2026-04-26 19:15 43.40364 9.64482 30664 ft 460 kts 141°
2026-04-26 19:15 43.37889 9.67283 30997 ft 462 kts 141°
2026-04-26 19:15 43.35404 9.70093 31316 ft 464 kts 142°
2026-04-26 19:16 43.32935 9.72880 31644 ft 466 kts 142°
2026-04-26 19:16 43.30427 9.75709 31981 ft 468 kts 142°
2026-04-26 19:16 43.27902 9.78555 32283 ft 470 kts 142°
2026-04-26 19:16 43.25364 9.81411 32594 ft 473 kts 142°
2026-04-26 19:17 43.22816 9.84276 32942 ft 474 kts 142°
2026-04-26 19:17 43.20270 9.87135 33374 ft 473 kts 142°
2026-04-26 19:17 43.17726 9.89989 33802 ft 472 kts 142°
2026-04-26 19:17 43.15185 9.92836 34217 ft 472 kts 142°
2026-04-26 19:18 43.12650 9.95672 34583 ft 471 kts 142°
2026-04-26 19:18 43.10113 9.98509 34924 ft 471 kts 142°
2026-04-26 19:18 43.07574 10.01345 35155 ft 472 kts 142°
2026-04-26 19:19 43.02500 10.07002 35161 ft 469 kts 142°
2026-04-26 19:19 42.97443 10.12628 35150 ft 469 kts 142°
2026-04-26 19:20 42.92382 10.18246 35163 ft 469 kts 142°
2026-04-26 19:20 42.87313 10.23862 35164 ft 469 kts 142°
2026-04-26 19:21 42.82246 10.29463 35157 ft 469 kts 142°
2026-04-26 19:21 42.77168 10.35066 35152 ft 469 kts 142°
2026-04-26 19:22 42.71754 10.39880 35150 ft 464 kts 162°
2026-04-26 19:22 42.65590 10.42522 35143 ft 465 kts 165°
2026-04-26 19:23 42.59392 10.45062 35156 ft 465 kts 165°
2026-04-26 19:23 42.53193 10.47549 35148 ft 465 kts 165°
2026-04-26 19:24 42.46978 10.50033 35159 ft 466 kts 165°
2026-04-26 19:24 42.37653 10.53749 35157 ft 466 kts 165°
2026-04-26 19:25 42.32487 10.55803 35160 ft 466 kts 165°
2026-04-26 19:25 42.25459 10.59539 35173 ft 467 kts 150°
2026-04-26 19:26 42.19815 10.63937 35160 ft 469 kts 151°
2026-04-26 19:26 42.14173 10.68355 35157 ft 469 kts 151°
2026-04-26 19:27 42.08533 10.72775 35158 ft 469 kts 151°
2026-04-26 19:27 42.02929 10.77159 35160 ft 469 kts 151°
2026-04-26 19:28 41.97288 10.81563 35163 ft 469 kts 151°
2026-04-26 19:28 41.91638 10.85965 35161 ft 469 kts 151°
2026-04-26 19:29 41.85990 10.90356 35157 ft 469 kts 151°
2026-04-26 19:29 41.80347 10.94733 35162 ft 468 kts 151°
2026-04-26 19:30 41.74712 10.99097 35165 ft 469 kts 151°
2026-04-26 19:30 41.70012 11.02729 35165 ft 469 kts 151°
2026-04-26 19:31 41.63412 11.07819 35160 ft 468 kts 151°
2026-04-26 19:31 41.57780 11.12153 35164 ft 467 kts 151°
2026-04-26 19:32 41.52140 11.16484 35165 ft 467 kts 151°
2026-04-26 19:32 41.46507 11.20801 35164 ft 467 kts 151°
2026-04-26 19:33 41.40869 11.25113 35164 ft 467 kts 151°
2026-04-26 19:33 41.35244 11.29407 35167 ft 466 kts 151°
2026-04-26 19:34 41.29617 11.33694 35165 ft 465 kts 152°
2026-04-26 19:34 41.23995 11.37968 35168 ft 465 kts 152°
2026-04-26 19:35 41.18377 11.42230 35169 ft 465 kts 152°
2026-04-26 19:35 41.12764 11.46481 35167 ft 465 kts 152°
2026-04-26 19:36 41.09040 11.49296 35167 ft 465 kts 152°
2026-04-26 19:36 41.01560 11.54940 35173 ft 465 kts 152°
2026-04-26 19:37 40.95945 11.59166 35167 ft 465 kts 152°
2026-04-26 19:37 40.90326 11.63387 35174 ft 464 kts 152°
2026-04-26 19:38 40.84700 11.67605 35171 ft 464 kts 152°
2026-04-26 19:38 40.79083 11.71808 35160 ft 464 kts 152°
2026-04-26 19:39 40.73469 11.76001 35164 ft 464 kts 152°
2026-04-26 19:39 40.67851 11.80189 35168 ft 463 kts 152°
2026-04-26 19:40 40.62242 11.84361 35173 ft 463 kts 152°
2026-04-26 19:40 40.56621 11.88534 35169 ft 463 kts 152°
2026-04-26 19:41 40.51008 11.92694 35163 ft 463 kts 152°
2026-04-26 19:41 40.47291 11.95444 35173 ft 463 kts 152°
2026-04-26 19:42 40.39816 12.00964 35175 ft 463 kts 152°
2026-04-26 19:42 40.34199 12.05102 35170 ft 463 kts 152°
2026-04-26 19:43 40.28586 12.09229 35176 ft 463 kts 152°
2026-04-26 19:43 40.23876 12.12686 35167 ft 463 kts 152°
2026-04-26 19:44 40.18261 12.16800 35170 ft 463 kts 152°
2026-04-26 19:44 40.12681 12.20881 35169 ft 463 kts 152°
2026-04-26 19:45 40.07058 12.24985 35170 ft 463 kts 152°
2026-04-26 19:45 40.01433 12.29083 35169 ft 463 kts 152°
2026-04-26 19:46 39.95811 12.33172 35173 ft 463 kts 152°
2026-04-26 19:46 39.90190 12.37251 35169 ft 463 kts 152°
2026-04-26 19:47 39.85519 12.40636 35166 ft 463 kts 152°
2026-04-26 19:47 39.78940 12.45393 35164 ft 462 kts 152°
2026-04-26 19:48 39.73307 12.49458 35170 ft 463 kts 152°
2026-04-26 19:48 39.67673 12.53517 35170 ft 463 kts 152°
2026-04-26 19:49 39.62036 12.57569 35169 ft 463 kts 152°
2026-04-26 19:49 39.56404 12.61611 35162 ft 463 kts 152°
2026-04-26 19:50 39.50754 12.65658 35171 ft 465 kts 153°
2026-04-26 19:50 39.45083 12.69712 35170 ft 465 kts 153°
2026-04-26 19:51 39.39419 12.73754 35170 ft 465 kts 153°
2026-04-26 19:51 39.33753 12.77789 35172 ft 465 kts 153°
2026-04-26 19:52 39.28115 12.81797 35169 ft 467 kts 153°
2026-04-26 19:52 39.22415 12.85842 35172 ft 467 kts 153°
2026-04-26 19:53 39.16723 12.89875 35174 ft 467 kts 153°
2026-04-26 19:53 39.11020 12.93908 35172 ft 467 kts 153°
2026-04-26 19:54 39.05322 12.97930 35166 ft 469 kts 153°
2026-04-26 19:54 38.99585 13.01973 35173 ft 470 kts 153°
2026-04-26 19:55 38.93856 13.06002 35172 ft 470 kts 153°
2026-04-26 19:55 38.88120 13.10029 35173 ft 470 kts 153°
2026-04-26 19:56 38.82218 13.13544 35172 ft 468 kts 159°
2026-04-26 19:56 38.76238 13.16917 35170 ft 470 kts 159°
2026-04-26 19:57 38.70270 13.20321 35167 ft 470 kts 159°
2026-04-26 19:57 38.64298 13.23724 35171 ft 470 kts 159°
2026-04-26 19:58 38.58327 13.27121 35165 ft 470 kts 159°
2026-04-26 19:58 38.52347 13.30517 35168 ft 470 kts 159°
2026-04-26 19:59 38.46435 13.33870 34337 ft 469 kts 159°
2026-04-26 19:59 38.43434 13.35568 33292 ft 473 kts 159°
2026-04-26 19:59 38.40411 13.37278 32562 ft 465 kts 159°
2026-04-26 20:00 38.37490 13.38928 32199 ft 453 kts 159°
2026-04-26 20:00 38.34670 13.40520 31829 ft 446 kts 159°
2026-04-26 20:00 38.31808 13.42135 31303 ft 443 kts 160°
2026-04-26 20:00 38.29022 13.43705 30715 ft 443 kts 160°
2026-04-26 20:01 38.26202 13.45293 30102 ft 443 kts 160°
2026-04-26 20:01 38.23383 13.46880 29487 ft 442 kts 160°
2026-04-26 20:01 38.20587 13.48452 28950 ft 438 kts 159°
2026-04-26 20:01 38.17808 13.50013 28419 ft 435 kts 159°
2026-04-26 20:02 38.15048 13.51563 27899 ft 432 kts 159°
2026-04-26 20:02 38.12302 13.53102 27365 ft 430 kts 159°
2026-04-26 20:02 38.09578 13.54629 26827 ft 427 kts 159°
2026-04-26 20:02 38.07741 13.55657 26479 ft 426 kts 159°
2026-04-26 20:03 38.04167 13.57656 25800 ft 423 kts 159°
2026-04-26 20:03 38.01474 13.59162 25298 ft 421 kts 159°
2026-04-26 20:03 37.98798 13.60657 24794 ft 420 kts 159°
2026-04-26 20:03 37.96134 13.62144 24305 ft 418 kts 159°
2026-04-26 20:04 37.93472 13.63628 23818 ft 417 kts 159°
2026-04-26 20:04 37.90833 13.65138 23234 ft 416 kts 154°
2026-04-26 20:04 37.88491 13.67306 22636 ft 421 kts 136°
2026-04-26 20:04 37.86798 13.70273 22205 ft 413 kts 117°
2026-04-26 20:05 37.85689 13.73582 21855 ft 405 kts 113°
2026-04-26 20:05 37.84626 13.76867 21398 ft 403 kts 112°
2026-04-26 20:05 37.83581 13.80146 20926 ft 401 kts 112°
2026-04-26 20:05 37.82546 13.83419 20485 ft 399 kts 112°
2026-04-26 20:06 37.81523 13.86666 20070 ft 397 kts 112°
2026-04-26 20:06 37.80504 13.89899 19636 ft 395 kts 112°
2026-04-26 20:06 37.79490 13.93116 19206 ft 393 kts 112°
2026-04-26 20:06 37.78479 13.96319 18793 ft 391 kts 112°
2026-04-26 20:07 37.77472 13.99498 18342 ft 390 kts 112°
2026-04-26 20:07 37.76442 14.02674 17806 ft 389 kts 113°
2026-04-26 20:07 37.75420 14.05820 17390 ft 386 kts 113°
2026-04-26 20:07 37.74420 14.08900 16972 ft 382 kts 113°
2026-04-26 20:08 37.73415 14.11994 16565 ft 379 kts 113°
2026-04-26 20:08 37.72418 14.15058 16157 ft 376 kts 113°
2026-04-26 20:08 37.71427 14.18102 15750 ft 373 kts 113°
2026-04-26 20:08 37.70442 14.21125 15349 ft 371 kts 113°
2026-04-26 20:09 37.69464 14.24121 14932 ft 368 kts 113°
2026-04-26 20:09 37.68494 14.27093 14532 ft 362 kts 113°
2026-04-26 20:09 37.67546 14.29991 14136 ft 353 kts 113°
2026-04-26 20:09 37.66621 14.32819 13724 ft 343 kts 113°
2026-04-26 20:10 37.65721 14.35564 13330 ft 336 kts 113°
2026-04-26 20:10 37.64831 14.38280 12943 ft 333 kts 113°
2026-04-26 20:10 37.63947 14.40974 12574 ft 331 kts 113°
2026-04-26 20:10 37.63068 14.43650 12226 ft 328 kts 113°
2026-04-26 20:11 37.62366 14.46345 12031 ft 320 kts 97°
2026-04-26 20:11 37.62390 14.49080 11883 ft 305 kts 85°
2026-04-26 20:11 37.62543 14.51690 11769 ft 292 kts 85°
2026-04-26 20:12 37.62850 14.56579 11495 ft 267 kts 85°
2026-04-26 20:12 37.63002 14.58866 11357 ft 256 kts 85°
2026-04-26 20:12 37.63149 14.61054 11300 ft 243 kts 85°
2026-04-26 20:12 37.63289 14.63120 11226 ft 235 kts 85°
2026-04-26 20:13 37.63433 14.65240 11009 ft 251 kts 85°
2026-04-26 20:13 37.63584 14.67465 10755 ft 258 kts 85°
2026-04-26 20:13 37.63666 14.69737 10503 ft 260 kts 96°
2026-04-26 20:13 37.63064 14.71861 10220 ft 258 kts 125°
2026-04-26 20:14 37.61782 14.73363 9980 ft 250 kts 152°
2026-04-26 20:14 37.60155 14.74016 9726 ft 244 kts 175°
2026-04-26 20:14 37.58497 14.73765 9476 ft 240 kts 203°
2026-04-26 20:14 37.57173 14.72546 9274 ft 238 kts 230°
2026-04-26 20:15 37.56210 14.70844 9114 ft 239 kts 239°
2026-04-26 20:15 37.55398 14.69024 8882 ft 239 kts 241°
2026-04-26 20:15 37.54622 14.67175 8563 ft 238 kts 246°
2026-04-26 20:15 37.54055 14.65219 8270 ft 237 kts 251°
2026-04-26 20:16 37.53584 14.63227 8053 ft 237 kts 255°
2026-04-26 20:16 37.53201 14.61209 7891 ft 237 kts 257°
2026-04-26 20:16 37.52883 14.59171 7772 ft 238 kts 259°
2026-04-26 20:16 37.52613 14.57113 7644 ft 238 kts 261°
2026-04-26 20:17 37.52377 14.55053 7458 ft 237 kts 261°
2026-04-26 20:17 37.52162 14.52994 7277 ft 237 kts 262°
2026-04-26 20:17 37.51959 14.50939 7112 ft 237 kts 262°
2026-04-26 20:17 37.51828 14.49575 7049 ft 237 kts 262°
2026-04-26 20:18 37.51401 14.46875 6859 ft 235 kts 242°
2026-04-26 20:18 37.50356 14.45351 6701 ft 231 kts 212°
2026-04-26 20:18 37.48888 14.44662 6595 ft 229 kts 185°
2026-04-26 20:18 37.47301 14.44699 6507 ft 229 kts 175°
2026-04-26 20:19 37.45715 14.44868 6389 ft 229 kts 174°
2026-04-26 20:19 37.44137 14.45095 6251 ft 228 kts 166°
2026-04-26 20:19 37.42770 14.46023 6065 ft 225 kts 135°
2026-04-26 20:19 37.41968 14.47687 5930 ft 225 kts 107°
2026-04-26 20:20 37.41848 14.49646 5842 ft 227 kts 86°
2026-04-26 20:20 37.41982 14.51625 5769 ft 228 kts 85°
2026-04-26 20:20 37.42133 14.53604 5698 ft 227 kts 85°
2026-04-26 20:20 37.42291 14.55581 5629 ft 227 kts 84°
2026-04-26 20:21 37.42453 14.57526 5546 ft 220 kts 84°
2026-04-26 20:21 37.42616 14.59422 5465 ft 217 kts 84°
2026-04-26 20:21 37.42802 14.61301 5397 ft 216 kts 83°
2026-04-26 20:21 37.42989 14.63173 5325 ft 216 kts 83°
2026-04-26 20:22 37.43167 14.65049 5255 ft 216 kts 84°
2026-04-26 20:22 37.43336 14.66916 5203 ft 216 kts 84°
2026-04-26 20:22 37.43503 14.68796 5066 ft 216 kts 84°
2026-04-26 20:22 37.43664 14.70665 4863 ft 215 kts 84°
2026-04-26 20:23 37.43820 14.72533 4608 ft 214 kts 84°
2026-04-26 20:23 37.43970 14.74397 4339 ft 214 kts 84°
2026-04-26 20:23 37.44114 14.76251 4156 ft 213 kts 84°
2026-04-26 20:23 37.44251 14.78105 4032 ft 213 kts 84°
2026-04-26 20:24 37.44387 14.79956 3903 ft 213 kts 84°
2026-04-26 20:24 37.44525 14.81808 3660 ft 212 kts 84°
2026-04-26 20:24 37.44652 14.83653 3361 ft 211 kts 83°
2026-04-26 20:24 37.44775 14.85492 3067 ft 210 kts 84°
2026-04-26 20:25 37.44897 14.87303 2861 ft 201 kts 85°
2026-04-26 20:25 37.44936 14.87882 2781 ft 194 kts 84°
2026-04-26 20:25 37.45128 14.90627 2316 ft 188 kts 84°
2026-04-26 20:25 37.45247 14.92258 2048 ft 187 kts 84°
2026-04-26 20:26 37.45396 14.93880 1784 ft 187 kts 82°
2026-04-26 20:26 37.45580 14.95498 1482 ft 184 kts 81°
2026-04-26 20:26 37.45771 14.97011 1262 ft 165 kts 80°
2026-04-26 20:26 37.45937 14.98366 1102 ft 153 kts 81°
2026-04-26 20:27 37.46072 14.99689 931 ft 152 kts 81°
2026-04-26 20:27 37.46195 15.01010 752 ft 151 kts 83°
2026-04-26 20:27 37.46303 15.02334 545 ft 152 kts 81°
2026-04-26 20:27 37.46417 15.03660 332 ft 154 kts 81°
2026-04-26 20:28 37.46543 15.05017 142 ft 157 kts 82°
2026-04-26 20:28 37.46652 15.06327 36 ft 132 kts 83°
2026-04-26 20:28 37.46726 15.07198 28 ft 66 kts 84°
2026-04-26 20:28 37.46783 15.07618 27 ft 36 kts 69°
2026-04-26 20:29 37.46871 15.07798 28 ft 16 kts 45°
2026-04-26 20:29 37.46938 15.07781 26 ft 11 kts 283°
2026-04-26 20:29 37.46936 15.07721 28 ft 11 kts 264°
2026-04-26 20:29 37.46925 15.07591 30 ft 12 kts 264°
2026-04-26 20:30 37.46915 15.07470 29 ft 16 kts 264°
2026-04-26 20:30 37.46903 15.07324 30 ft 18 kts 263°
2026-04-26 20:30 37.46888 15.07163 31 ft 19 kts 264°
2026-04-26 20:30 37.46872 15.06975 28 ft 24 kts 264°
2026-04-26 20:31 37.46860 15.06829 28 ft 25 kts 264°
2026-04-26 20:31 37.46847 15.06687 30 ft 14 kts 263°
2026-04-26 20:31 37.46878 15.06622 30 ft 9 kts 342°
2026-04-26 20:31 37.46920 15.06623 29 ft 0 kts 15°